Time,TemperatureF,DewpointF,PressureIn,WindDirection,WindDirectionDegrees,WindSpeedMPH,WindSpeedGustMPH,Humidity,HourlyPrecipIn,Conditions,Clouds,dailyrainin,SoftwareType,DateUTC
2013-03-19 00:00:00,31.3,28.0,30.20,ESE,112,2.3,7.2,88,0.00,,,0.00,Rainwise IP-100,2013-03-19 04:00:00,
2013-03-19 00:01:00,31.3,28.0,30.20,ENE,67,2.6,7.2,89,0.00,,,0.00,Rainwise IP-100,2013-03-19 04:01:00,
2013-03-19 00:06:00,31.1,28.0,30.19,ENE,67,3.7,10.0,90,0.00,,,0.00,Rainwise IP-100,2013-03-19 04:06:00,
2013-03-19 00:11:00,31.1,28.0,30.19,ENE,67,3.5,6.3,91,0.00,,,0.00,Rainwise IP-100,2013-03-19 04:11:00,
2013-03-19 00:16:00,31.0,29.0,30.18,East,90,6.8,8.6,92,0.00,,,0.00,Rainwise IP-100,2013-03-19 04:16:00,
2013-03-19 00:21:00,31.0,29.0,30.18,ENE,67,8.2,9.6,92,0.00,,,0.00,Rainwise IP-100,2013-03-19 04:21:00,
2013-03-19 00:26:00,31.0,29.0,30.17,ENE,67,4.2,9.1,93,0.00,,,0.00,Rainwise IP-100,2013-03-19 04:26:00,
2013-03-19 00:31:00,31.0,29.0,30.17,East,90,1.4,10.5,93,0.00,,,0.00,Rainwise IP-100,2013-03-19 04:31:00,
2013-03-19 00:36:00,31.0,29.0,30.16,ENE,67,5.1,9.8,94,0.00,,,0.00,Rainwise IP-100,2013-03-19 04:36:00,
2013-03-19 00:41:00,31.1,29.0,30.16,ESE,112,3.7,10.3,94,0.00,,,0.00,Rainwise IP-100,2013-03-19 04:41:00,
2013-03-19 00:46:00,31.1,29.0,30.15,East,90,3.5,12.1,94,0.00,,,0.00,Rainwise IP-100,2013-03-19 04:46:00,
2013-03-19 00:51:00,31.1,29.0,30.14,ENE,67,3.7,10.3,95,0.00,,,0.00,Rainwise IP-100,2013-03-19 04:51:00,
2013-03-19 00:56:00,31.2,29.0,30.14,ENE,67,4.2,11.0,95,0.00,,,0.00,Rainwise IP-100,2013-03-19 04:56:00,
2013-03-19 01:01:00,31.1,29.0,30.13,NE,45,2.8,8.6,95,0.00,,,0.00,Rainwise IP-100,2013-03-19 05:01:00,
2013-03-19 01:06:00,31.1,29.0,30.13,ENE,67,4.0,12.6,96,0.00,,,0.00,Rainwise IP-100,2013-03-19 05:06:00,
2013-03-19 01:11:00,30.9,29.0,30.12,ENE,67,2.6,9.6,96,0.00,,,0.00,Rainwise IP-100,2013-03-19 05:11:00,
2013-03-19 01:16:00,30.8,29.0,30.12,East,90,3.5,9.3,96,0.00,,,0.00,Rainwise IP-100,2013-03-19 05:16:00,
2013-03-19 01:21:00,30.9,29.0,30.11,NE,45,2.8,8.9,96,0.00,,,0.00,Rainwise IP-100,2013-03-19 05:21:00,
2013-03-19 01:26:00,30.9,29.0,30.10,East,90,5.6,9.3,96,0.00,,,0.00,Rainwise IP-100,2013-03-19 05:26:00,
2013-03-19 01:31:00,31.0,29.0,30.10,East,90,1.4,13.3,96,0.00,,,0.00,Rainwise IP-100,2013-03-19 05:31:00,
2013-03-19 01:37:00,31.0,29.0,30.10,SE,135,4.4,15.6,97,0.00,,,0.00,Rainwise IP-100,2013-03-19 05:37:00,
2013-03-19 01:42:00,31.1,29.0,30.10,SE,135,5.8,10.3,97,0.00,,,0.00,Rainwise IP-100,2013-03-19 05:42:00,
2013-03-19 01:47:00,31.2,29.0,30.09,ENE,67,2.8,11.9,97,0.00,,,0.00,Rainwise IP-100,2013-03-19 05:47:00,
2013-03-19 01:52:00,31.3,29.0,30.08,East,90,8.4,9.8,97,0.00,,,0.00,Rainwise IP-100,2013-03-19 05:52:00,
2013-03-19 01:57:00,31.4,29.0,30.09,East,90,5.1,11.7,97,0.00,,,0.00,Rainwise IP-100,2013-03-19 05:57:00,
2013-03-19 02:02:00,31.5,31.0,30.08,NE,45,3.5,8.2,97,0.00,,,0.00,Rainwise IP-100,2013-03-19 06:02:00,
2013-03-19 02:07:00,31.5,31.0,30.08,ESE,112,3.3,10.7,97,0.00,,,0.00,Rainwise IP-100,2013-03-19 06:07:00,
2013-03-19 02:12:00,31.6,31.0,30.07,ESE,112,1.4,11.9,97,0.00,,,0.00,Rainwise IP-100,2013-03-19 06:12:00,
2013-03-19 02:17:00,31.7,31.0,30.06,ESE,112,2.6,8.9,97,0.00,,,0.00,Rainwise IP-100,2013-03-19 06:17:00,
2013-03-19 02:22:00,31.7,31.0,30.06,ENE,67,4.9,10.0,97,0.00,,,0.00,Rainwise IP-100,2013-03-19 06:22:00,
2013-03-19 02:27:00,31.8,31.0,30.06,ENE,67,1.6,11.2,97,0.00,,,0.00,Rainwise IP-100,2013-03-19 06:27:00,
2013-03-19 02:32:00,31.9,31.0,30.05,East,90,4.2,10.5,97,0.00,,,0.00,Rainwise IP-100,2013-03-19 06:32:00,
2013-03-19 02:37:00,32.0,31.0,30.05,ENE,67,4.4,13.3,97,0.00,,,0.00,Rainwise IP-100,2013-03-19 06:37:00,
2013-03-19 02:42:00,32.2,31.0,30.04,East,90,3.0,8.6,97,0.00,,,0.00,Rainwise IP-100,2013-03-19 06:42:00,
2013-03-19 02:47:00,32.3,31.0,30.04,North,360,3.5,14.2,97,0.00,,,0.00,Rainwise IP-100,2013-03-19 06:47:00,
2013-03-19 02:52:00,32.3,31.0,30.03,NE,45,7.9,10.3,96,0.00,,,0.00,Rainwise IP-100,2013-03-19 06:52:00,
2013-03-19 02:57:00,32.4,31.0,30.03,NE,45,7.5,10.5,96,0.00,,,0.00,Rainwise IP-100,2013-03-19 06:57:00,
2013-03-19 03:02:00,32.4,31.0,30.03,ENE,67,3.0,14.2,96,0.00,,,0.00,Rainwise IP-100,2013-03-19 07:02:00,
2013-03-19 03:07:00,32.5,32.0,30.03,East,90,6.5,9.3,96,0.00,,,0.00,Rainwise IP-100,2013-03-19 07:07:00,
2013-03-19 03:12:00,32.5,32.0,30.02,East,90,4.0,12.1,96,0.00,,,0.00,Rainwise IP-100,2013-03-19 07:12:00,
2013-03-19 03:17:00,32.5,32.0,30.02,East,90,6.3,11.0,96,0.00,,,0.00,Rainwise IP-100,2013-03-19 07:17:00,
2013-03-19 03:22:00,32.6,32.0,30.02,East,90,7.0,11.4,96,0.00,,,0.00,Rainwise IP-100,2013-03-19 07:22:00,
2013-03-19 03:27:00,32.7,32.0,30.02,NE,45,1.9,10.5,96,0.00,,,0.00,Rainwise IP-100,2013-03-19 07:27:00,
2013-03-19 03:32:00,32.8,32.0,30.01,ENE,67,6.3,11.2,96,0.00,,,0.00,Rainwise IP-100,2013-03-19 07:32:00,
2013-03-19 03:37:00,32.8,32.0,30.02,ENE,67,3.0,9.6,96,0.00,,,0.00,Rainwise IP-100,2013-03-19 07:37:00,
2013-03-19 03:42:00,32.9,32.0,30.01,South,180,3.7,10.3,96,0.00,,,0.00,Rainwise IP-100,2013-03-19 07:42:00,
2013-03-19 03:47:00,32.9,32.0,30.01,SSE,157,14.7,14.7,96,0.00,,,0.00,Rainwise IP-100,2013-03-19 07:47:00,
2013-03-19 03:52:00,33.0,32.0,30.00,ENE,67,3.5,16.1,96,0.00,,,0.00,Rainwise IP-100,2013-03-19 07:52:00,
2013-03-19 03:57:00,33.1,32.0,30.00,East,90,7.7,10.7,96,0.00,,,0.00,Rainwise IP-100,2013-03-19 07:57:00,
2013-03-19 04:02:00,33.1,32.0,30.00,ENE,67,6.3,12.8,96,0.00,,,0.00,Rainwise IP-100,2013-03-19 08:02:00,
2013-03-19 04:07:00,33.1,32.0,30.00,ESE,112,3.7,11.7,96,0.00,,,0.00,Rainwise IP-100,2013-03-19 08:07:00,
2013-03-19 04:12:00,33.0,32.0,29.98,ENE,67,5.6,12.8,96,0.00,,,0.00,Rainwise IP-100,2013-03-19 08:12:00,
2013-03-19 04:17:00,33.0,32.0,29.98,NNE,22,3.0,13.3,96,0.00,,,0.00,Rainwise IP-100,2013-03-19 08:17:00,
2013-03-19 04:22:00,33.0,32.0,29.97,ESE,112,4.9,14.2,96,0.00,,,0.00,Rainwise IP-100,2013-03-19 08:22:00,
2013-03-19 04:27:00,33.0,32.0,29.97,ENE,67,7.2,12.4,97,0.00,,,0.00,Rainwise IP-100,2013-03-19 08:27:00,
2013-03-19 04:32:00,33.0,32.0,29.97,ENE,67,5.6,9.8,97,0.00,,,0.00,Rainwise IP-100,2013-03-19 08:32:00,
2013-03-19 04:37:00,33.0,32.0,29.96,ENE,67,4.2,16.6,97,0.00,,,0.00,Rainwise IP-100,2013-03-19 08:37:00,
2013-03-19 04:42:00,33.1,32.0,29.96,NE,45,2.8,14.9,97,0.06,,,0.01,Rainwise IP-100,2013-03-19 08:42:00,
2013-03-19 04:47:00,33.2,32.0,29.95,ENE,67,6.1,11.2,97,0.12,,,0.02,Rainwise IP-100,2013-03-19 08:47:00,
2013-03-19 04:52:00,33.2,32.0,29.96,NNE,22,6.8,11.7,97,0.06,,,0.02,Rainwise IP-100,2013-03-19 08:52:00,
2013-03-19 04:57:00,33.3,32.0,29.96,ENE,67,3.0,13.8,97,0.18,,,0.05,Rainwise IP-100,2013-03-19 08:57:00,
2013-03-19 05:02:00,33.4,32.0,29.96,ENE,67,4.2,14.5,97,0.24,,,0.06,Rainwise IP-100,2013-03-19 09:02:00,
2013-03-19 05:07:00,33.5,33.0,29.96,ENE,67,6.5,9.6,97,0.12,,,0.07,Rainwise IP-100,2013-03-19 09:07:00,
2013-03-19 05:12:00,33.4,32.0,29.97,ENE,67,1.9,14.9,97,0.12,,,0.08,Rainwise IP-100,2013-03-19 09:12:00,
2013-03-19 05:17:00,33.4,33.0,29.96,ENE,67,8.6,16.3,98,0.18,,,0.10,Rainwise IP-100,2013-03-19 09:17:00,
2013-03-19 05:22:00,33.5,35.0,29.96,NE,45,4.0,10.7,98,0.18,,,0.11,Rainwise IP-100,2013-03-19 09:22:00,
2013-03-19 05:27:00,33.5,35.0,29.96,ENE,67,3.0,10.5,98,0.12,,,0.12,Rainwise IP-100,2013-03-19 09:27:00,
2013-03-19 05:32:00,33.5,35.0,29.96,NE,45,3.5,9.3,98,0.18,,,0.14,Rainwise IP-100,2013-03-19 09:32:00,
2013-03-19 05:37:00,33.5,35.0,29.96,NE,45,5.1,10.5,98,0.18,,,0.15,Rainwise IP-100,2013-03-19 09:37:00,
2013-03-19 05:42:00,33.5,35.0,29.96,ENE,67,4.2,10.5,98,0.12,,,0.16,Rainwise IP-100,2013-03-19 09:42:00,
2013-03-19 05:47:00,33.5,35.0,29.96,NE,45,3.5,8.9,98,0.06,,,0.16,Rainwise IP-100,2013-03-19 09:47:00,
2013-03-19 05:52:00,33.5,35.0,29.96,NE,45,3.3,9.1,98,0.06,,,0.17,Rainwise IP-100,2013-03-19 09:52:00,
2013-03-19 05:57:00,33.6,35.0,29.95,NNE,22,5.6,11.2,98,0.12,,,0.18,Rainwise IP-100,2013-03-19 09:57:00,
2013-03-19 06:02:00,33.7,35.0,29.96,SE,135,1.6,8.9,98,0.06,,,0.18,Rainwise IP-100,2013-03-19 10:02:00,
2013-03-19 06:07:00,33.8,35.0,29.95,East,90,4.0,11.4,98,0.06,,,0.19,Rainwise IP-100,2013-03-19 10:07:00,
2013-03-19 06:12:00,33.8,35.0,29.95,ENE,67,5.8,10.7,98,0.12,,,0.20,Rainwise IP-100,2013-03-19 10:12:00,
2013-03-19 06:17:00,33.8,35.0,29.95,NE,45,4.4,11.9,98,0.06,,,0.21,Rainwise IP-100,2013-03-19 10:17:00,
2013-03-19 06:22:00,33.8,35.0,29.95,ENE,67,4.7,12.8,98,0.06,,,0.22,Rainwise IP-100,2013-03-19 10:22:00,
2013-03-19 06:27:00,33.8,35.0,29.94,ENE,67,6.3,13.5,98,0.12,,,0.22,Rainwise IP-100,2013-03-19 10:27:00,
2013-03-19 06:32:00,33.9,35.0,29.95,East,90,1.4,11.7,98,0.12,,,0.23,Rainwise IP-100,2013-03-19 10:32:00,
2013-03-19 06:37:00,33.9,35.0,29.94,ENE,67,3.5,9.8,98,0.12,,,0.24,Rainwise IP-100,2013-03-19 10:37:00,
2013-03-19 06:42:00,33.9,35.0,29.94,NE,45,5.6,10.3,98,0.06,,,0.24,Rainwise IP-100,2013-03-19 10:42:00,
2013-03-19 06:47:00,33.9,35.0,29.93,ENE,67,9.6,12.4,98,0.06,,,0.25,Rainwise IP-100,2013-03-19 10:47:00,
2013-03-19 06:52:00,33.9,35.0,29.93,NNE,22,4.7,10.3,98,0.12,,,0.26,Rainwise IP-100,2013-03-19 10:52:00,
2013-03-19 06:57:00,33.9,35.0,29.92,East,90,6.1,9.1,98,0.06,,,0.26,Rainwise IP-100,2013-03-19 10:57:00,
2013-03-19 07:02:00,33.9,35.0,29.92,ESE,112,5.1,11.0,99,0.06,,,0.27,Rainwise IP-100,2013-03-19 11:02:00,
2013-03-19 07:07:00,34.0,35.0,29.92,ENE,67,3.5,11.2,99,0.12,,,0.28,Rainwise IP-100,2013-03-19 11:07:00,
2013-03-19 07:12:00,34.1,35.0,29.91,NE,45,3.7,12.4,99,0.12,,,0.29,Rainwise IP-100,2013-03-19 11:12:00,
2013-03-19 07:17:00,34.2,35.0,29.91,ENE,67,6.1,11.7,99,0.06,,,0.29,Rainwise IP-100,2013-03-19 11:17:00,
2013-03-19 07:22:00,34.3,35.0,29.90,ESE,112,7.7,14.7,98,0.06,,,0.30,Rainwise IP-100,2013-03-19 11:22:00,
2013-03-19 07:27:00,34.2,35.0,29.91,ENE,67,5.1,13.5,98,0.06,,,0.31,Rainwise IP-100,2013-03-19 11:27:00,
2013-03-19 07:32:00,34.2,35.0,29.91,NE,45,5.4,8.9,98,0.06,,,0.31,Rainwise IP-100,2013-03-19 11:32:00,
2013-03-19 07:37:00,34.2,35.0,29.90,NE,45,5.4,10.5,98,0.06,,,0.31,Rainwise IP-100,2013-03-19 11:37:00,
2013-03-19 07:42:00,34.3,35.0,29.89,ENE,67,8.6,9.3,99,0.06,,,0.32,Rainwise IP-100,2013-03-19 11:42:00,
2013-03-19 07:48:00,34.4,35.0,29.89,ENE,67,5.8,13.5,99,0.06,,,0.32,Rainwise IP-100,2013-03-19 11:48:00,
2013-03-19 07:53:00,34.4,35.0,29.88,NE,45,9.6,10.3,99,0.06,,,0.33,Rainwise IP-100,2013-03-19 11:53:00,
2013-03-19 07:58:00,34.6,35.0,29.88,NE,45,7.7,12.1,99,0.12,,,0.34,Rainwise IP-100,2013-03-19 11:58:00,
2013-03-19 08:03:00,34.7,35.0,29.87,ENE,67,8.9,12.1,99,0.06,,,0.34,Rainwise IP-100,2013-03-19 12:03:00,
2013-03-19 08:08:00,34.7,35.0,29.87,North,360,9.1,13.3,99,0.06,,,0.35,Rainwise IP-100,2013-03-19 12:08:00,
2013-03-19 08:13:00,34.8,35.0,29.86,ENE,67,4.2,11.0,99,0.12,,,0.36,Rainwise IP-100,2013-03-19 12:13:00,
2013-03-19 08:18:00,34.9,35.0,29.86,ENE,67,9.3,13.8,99,0.06,,,0.36,Rainwise IP-100,2013-03-19 12:18:00,
2013-03-19 08:23:00,34.9,35.0,29.85,ENE,67,5.1,11.9,99,0.06,,,0.37,Rainwise IP-100,2013-03-19 12:23:00,
2013-03-19 08:28:00,35.0,35.0,29.85,NW,315,4.4,14.0,98,0.12,,,0.38,Rainwise IP-100,2013-03-19 12:28:00,
2013-03-19 08:33:00,35.2,35.0,29.85,NE,45,7.2,13.8,98,0.12,,,0.39,Rainwise IP-100,2013-03-19 12:33:00,
2013-03-19 08:38:00,35.3,35.0,29.85,ENE,67,12.1,14.2,98,0.06,,,0.40,Rainwise IP-100,2013-03-19 12:38:00,
2013-03-19 08:43:00,35.4,35.0,29.85,ESE,112,6.1,12.1,99,0.06,,,0.40,Rainwise IP-100,2013-03-19 12:43:00,
2013-03-19 08:48:00,35.5,36.0,29.84,North,360,10.5,14.0,99,0.12,,,0.41,Rainwise IP-100,2013-03-19 12:48:00,
2013-03-19 08:53:00,35.6,36.0,29.84,ENE,67,7.7,11.0,99,0.12,,,0.42,Rainwise IP-100,2013-03-19 12:53:00,
2013-03-19 08:58:00,35.7,36.0,29.83,ENE,67,4.4,10.5,99,0.12,,,0.43,Rainwise IP-100,2013-03-19 12:58:00,
2013-03-19 09:03:00,35.7,36.0,29.83,ENE,67,6.3,14.2,99,0.12,,,0.44,Rainwise IP-100,2013-03-19 13:03:00,
2013-03-19 09:08:00,35.8,36.0,29.83,SE,135,5.6,15.9,99,0.12,,,0.45,Rainwise IP-100,2013-03-19 13:08:00,
2013-03-19 09:13:00,35.9,36.0,29.83,ENE,67,10.7,11.9,99,0.12,,,0.46,Rainwise IP-100,2013-03-19 13:13:00,
2013-03-19 09:18:00,35.9,36.0,29.82,NNE,22,9.1,12.4,99,0.12,,,0.47,Rainwise IP-100,2013-03-19 13:18:00,
2013-03-19 09:23:00,36.0,36.0,29.82,NE,45,5.4,11.9,99,0.12,,,0.48,Rainwise IP-100,2013-03-19 13:23:00,
2013-03-19 09:28:00,36.1,36.0,29.81,ENE,67,6.8,10.5,99,0.12,,,0.49,Rainwise IP-100,2013-03-19 13:28:00,
2013-03-19 09:33:00,36.2,36.0,29.81,ESE,112,6.5,17.5,99,0.12,,,0.50,Rainwise IP-100,2013-03-19 13:33:00,
2013-03-19 09:38:00,36.3,36.0,29.80,ENE,67,8.9,14.2,99,0.18,,,0.52,Rainwise IP-100,2013-03-19 13:38:00,
2013-03-19 09:43:00,36.4,36.0,29.80,East,90,5.8,16.8,99,0.18,,,0.53,Rainwise IP-100,2013-03-19 13:43:00,
2013-03-19 09:48:00,36.5,37.0,29.80,East,90,6.5,11.0,99,0.12,,,0.54,Rainwise IP-100,2013-03-19 13:48:00,
2013-03-19 09:53:00,36.5,37.0,29.79,ENE,67,6.1,12.6,99,0.12,,,0.55,Rainwise IP-100,2013-03-19 13:53:00,
2013-03-19 09:58:00,36.7,37.0,29.79,ENE,67,6.3,12.8,99,0.12,,,0.56,Rainwise IP-100,2013-03-19 13:58:00,
2013-03-19 10:03:00,36.8,37.0,29.79,East,90,4.2,16.8,99,0.12,,,0.57,Rainwise IP-100,2013-03-19 14:03:00,
2013-03-19 10:08:00,36.9,37.0,29.79,East,90,8.4,14.2,99,0.12,,,0.59,Rainwise IP-100,2013-03-19 14:08:00,
2013-03-19 10:13:00,37.0,37.0,29.78,ENE,67,3.3,13.8,99,0.24,,,0.61,Rainwise IP-100,2013-03-19 14:13:00,
2013-03-19 10:18:00,37.0,37.0,29.79,NE,45,7.7,16.1,99,0.30,,,0.64,Rainwise IP-100,2013-03-19 14:18:00,
2013-03-19 10:23:00,37.0,37.0,29.77,ENE,67,7.2,13.8,99,0.30,,,0.66,Rainwise IP-100,2013-03-19 14:23:00,
2013-03-19 10:28:00,37.1,37.0,29.77,NE,45,4.9,11.9,99,0.24,,,0.67,Rainwise IP-100,2013-03-19 14:28:00,
2013-03-19 10:33:00,37.2,37.0,29.77,ENE,67,5.8,16.3,99,0.18,,,0.69,Rainwise IP-100,2013-03-19 14:33:00,
2013-03-19 10:38:00,37.2,37.0,29.77,ENE,67,8.6,10.5,99,0.18,,,0.70,Rainwise IP-100,2013-03-19 14:38:00,
2013-03-19 10:43:00,37.3,37.0,29.75,ENE,67,5.1,12.8,99,0.12,,,0.71,Rainwise IP-100,2013-03-19 14:43:00,
2013-03-19 10:48:00,37.4,37.0,29.76,East,90,8.4,13.5,99,0.12,,,0.72,Rainwise IP-100,2013-03-19 14:48:00,
2013-03-19 10:53:00,37.4,37.0,29.75,East,90,5.6,14.0,99,0.18,,,0.74,Rainwise IP-100,2013-03-19 14:53:00,
2013-03-19 10:58:00,37.5,38.0,29.75,NE,45,3.0,17.0,99,0.18,,,0.75,Rainwise IP-100,2013-03-19 14:58:00,
2013-03-19 11:03:00,37.6,38.0,29.75,NE,45,7.0,14.0,99,0.12,,,0.76,Rainwise IP-100,2013-03-19 15:03:00,
2013-03-19 11:08:00,37.7,38.0,29.74,East,90,6.3,11.4,99,0.06,,,0.77,Rainwise IP-100,2013-03-19 15:08:00,
2013-03-19 11:13:00,37.9,38.0,29.73,ENE,67,6.8,13.8,99,0.12,,,0.78,Rainwise IP-100,2013-03-19 15:13:00,
2013-03-19 11:18:00,37.9,38.0,29.73,NNE,22,4.7,12.6,99,0.18,,,0.79,Rainwise IP-100,2013-03-19 15:18:00,
2013-03-19 11:23:00,38.0,38.0,29.73,ENE,67,5.8,13.3,99,0.06,,,0.79,Rainwise IP-100,2013-03-19 15:23:00,
2013-03-19 11:28:00,38.2,38.0,29.73,ENE,67,4.7,13.5,99,0.06,,,0.80,Rainwise IP-100,2013-03-19 15:28:00,
2013-03-19 11:33:00,38.3,38.0,29.72,ENE,67,6.5,12.4,99,0.06,,,0.80,Rainwise IP-100,2013-03-19 15:33:00,
2013-03-19 11:38:00,38.3,38.0,29.72,East,90,9.3,9.6,99,0.00,,,0.80,Rainwise IP-100,2013-03-19 15:38:00,
2013-03-19 11:43:00,38.3,38.0,29.72,ENE,67,2.6,11.0,99,0.00,,,0.80,Rainwise IP-100,2013-03-19 15:43:00,
2013-03-19 11:48:00,38.4,38.0,29.72,ENE,67,4.2,8.9,99,0.00,,,0.80,Rainwise IP-100,2013-03-19 15:48:00,
2013-03-19 11:53:00,38.5,39.0,29.72,NE,45,6.1,11.7,99,0.00,,,0.81,Rainwise IP-100,2013-03-19 15:53:00,
2013-03-19 11:58:00,38.6,39.0,29.71,NNE,22,4.0,10.7,99,0.06,,,0.81,Rainwise IP-100,2013-03-19 15:58:00,
2013-03-19 12:03:00,38.7,39.0,29.70,ENE,67,4.2,11.0,100,0.12,,,0.82,Rainwise IP-100,2013-03-19 16:03:00,
2013-03-19 12:08:00,38.8,39.0,29.70,ENE,67,2.6,9.1,100,0.06,,,0.82,Rainwise IP-100,2013-03-19 16:08:00,
2013-03-19 12:13:00,38.8,39.0,29.70,ENE,67,5.1,11.7,100,0.06,,,0.83,Rainwise IP-100,2013-03-19 16:13:00,
2013-03-19 12:18:00,38.9,39.0,29.69,ESE,112,6.5,10.0,100,0.12,,,0.84,Rainwise IP-100,2013-03-19 16:18:00,
2013-03-19 12:23:00,39.1,39.0,29.69,NNE,22,7.7,12.4,100,0.12,,,0.85,Rainwise IP-100,2013-03-19 16:23:00,
2013-03-19 12:28:00,39.1,39.0,29.68,East,90,4.0,10.0,100,0.06,,,0.85,Rainwise IP-100,2013-03-19 16:28:00,
2013-03-19 12:33:00,39.1,39.0,29.68,ESE,112,2.8,9.8,100,0.06,,,0.86,Rainwise IP-100,2013-03-19 16:33:00,
2013-03-19 12:38:00,39.2,39.0,29.68,ENE,67,3.7,10.5,100,0.06,,,0.86,Rainwise IP-100,2013-03-19 16:38:00,
2013-03-19 12:43:00,39.3,39.0,29.67,ENE,67,6.8,11.4,100,0.00,,,0.86,Rainwise IP-100,2013-03-19 16:43:00,
2013-03-19 12:48:00,39.3,39.0,29.67,East,90,4.9,10.7,100,0.00,,,0.86,Rainwise IP-100,2013-03-19 16:48:00,
2013-03-19 12:53:00,39.5,40.0,29.66,ENE,67,1.2,9.6,100,0.00,,,0.86,Rainwise IP-100,2013-03-19 16:53:00,
2013-03-19 12:58:00,39.6,40.0,29.65,ENE,67,4.4,9.8,100,0.06,,,0.87,Rainwise IP-100,2013-03-19 16:58:00,
2013-03-19 13:03:00,39.7,40.0,29.65,ENE,67,4.7,12.4,100,0.06,,,0.87,Rainwise IP-100,2013-03-19 17:03:00,
2013-03-19 13:08:00,39.8,40.0,29.64,ENE,67,4.4,15.4,100,0.00,,,0.87,Rainwise IP-100,2013-03-19 17:08:00,
2013-03-19 13:13:00,40.0,40.0,29.64,NE,45,5.1,8.4,100,0.06,,,0.88,Rainwise IP-100,2013-03-19 17:13:00,
2013-03-19 13:18:00,40.1,40.0,29.64,NNE,22,2.8,10.3,100,0.06,,,0.88,Rainwise IP-100,2013-03-19 17:18:00,
2013-03-19 13:23:00,40.2,40.0,29.63,NNE,22,5.4,9.8,100,0.00,,,0.88,Rainwise IP-100,2013-03-19 17:23:00,
2013-03-19 13:28:00,40.2,40.0,29.62,ENE,67,4.7,11.7,100,0.00,,,0.88,Rainwise IP-100,2013-03-19 17:28:00,
2013-03-19 13:33:00,40.2,40.0,29.62,ENE,67,5.8,7.9,100,0.00,,,0.88,Rainwise IP-100,2013-03-19 17:33:00,
2013-03-19 13:38:00,40.3,40.0,29.61,ENE,67,3.5,10.3,100,0.00,,,0.88,Rainwise IP-100,2013-03-19 17:38:00,
2013-03-19 13:43:00,40.3,40.0,29.61,NE,45,6.3,7.0,100,0.06,,,0.89,Rainwise IP-100,2013-03-19 17:43:00,
2013-03-19 13:48:00,40.3,40.0,29.60,ENE,67,3.3,10.5,100,0.06,,,0.89,Rainwise IP-100,2013-03-19 17:48:00,
2013-03-19 13:53:00,40.4,40.0,29.59,NNE,22,6.1,8.9,100,0.00,,,0.89,Rainwise IP-100,2013-03-19 17:53:00,
2013-03-19 13:58:00,40.6,41.0,29.59,NE,45,8.4,10.7,100,0.00,,,0.89,Rainwise IP-100,2013-03-19 17:58:00,
2013-03-19 14:03:00,40.8,41.0,29.58,NE,45,4.7,8.4,100,0.00,,,0.89,Rainwise IP-100,2013-03-19 18:03:00,
2013-03-19 14:08:00,40.7,41.0,29.58,East,90,4.4,7.5,100,0.00,,,0.89,Rainwise IP-100,2013-03-19 18:08:00,
2013-03-19 14:13:00,40.8,41.0,29.58,ENE,67,3.5,6.1,100,0.00,,,0.89,Rainwise IP-100,2013-03-19 18:13:00,
2013-03-19 14:18:00,40.9,41.0,29.57,ENE,67,4.2,9.3,100,0.00,,,0.89,Rainwise IP-100,2013-03-19 18:18:00,
2013-03-19 14:23:00,40.9,41.0,29.57,ENE,67,4.0,11.9,100,0.06,,,0.90,Rainwise IP-100,2013-03-19 18:23:00,
2013-03-19 14:28:00,41.0,41.0,29.57,ENE,67,3.3,7.7,100,0.06,,,0.90,Rainwise IP-100,2013-03-19 18:28:00,
2013-03-19 14:33:00,41.2,41.0,29.57,ENE,67,3.5,7.9,100,0.06,,,0.91,Rainwise IP-100,2013-03-19 18:33:00,
2013-03-19 14:38:00,41.3,41.0,29.57,NE,45,7.2,7.2,100,0.06,,,0.91,Rainwise IP-100,2013-03-19 18:38:00,
2013-03-19 14:43:00,41.3,41.0,29.57,NE,45,4.9,7.5,100,0.00,,,0.92,Rainwise IP-100,2013-03-19 18:43:00,
2013-03-19 14:48:00,41.3,41.0,29.57,NNE,22,3.0,5.8,100,0.12,,,0.94,Rainwise IP-100,2013-03-19 18:48:00,
2013-03-19 14:53:00,41.4,41.0,29.56,ENE,67,4.7,7.0,100,0.18,,,0.94,Rainwise IP-100,2013-03-19 18:53:00,
2013-03-19 14:58:00,41.5,42.0,29.56,NE,45,2.3,6.1,100,0.06,,,0.94,Rainwise IP-100,2013-03-19 18:58:00,
2013-03-19 15:03:00,41.6,42.0,29.56,NE,45,2.8,4.7,100,0.00,,,0.94,Rainwise IP-100,2013-03-19 19:03:00,
2013-03-19 15:08:00,41.6,42.0,29.56,North,360,2.8,8.2,100,0.00,,,0.94,Rainwise IP-100,2013-03-19 19:08:00,
2013-03-19 15:13:00,41.6,42.0,29.56,North,360,1.6,5.8,100,0.06,,,0.95,Rainwise IP-100,2013-03-19 19:13:00,
2013-03-19 15:18:00,41.7,42.0,29.56,North,360,4.0,6.3,100,0.06,,,0.95,Rainwise IP-100,2013-03-19 19:18:00,
2013-03-19 15:23:00,41.7,42.0,29.56,NNW,337,4.4,6.8,100,0.00,,,0.95,Rainwise IP-100,2013-03-19 19:23:00,
2013-03-19 15:28:00,41.7,42.0,29.57,NW,315,8.4,8.4,100,0.00,,,0.95,Rainwise IP-100,2013-03-19 19:28:00,
2013-03-19 15:33:00,41.5,42.0,29.57,NNW,337,5.8,11.9,100,0.00,,,0.95,Rainwise IP-100,2013-03-19 19:33:00,
2013-03-19 15:38:00,41.1,41.0,29.55,North,360,4.2,14.5,100,0.06,,,0.96,Rainwise IP-100,2013-03-19 19:38:00,
2013-03-19 15:43:00,40.8,41.0,29.55,NE,45,3.7,12.4,100,0.06,,,0.96,Rainwise IP-100,2013-03-19 19:43:00,
2013-03-19 15:49:00,40.6,41.0,29.54,North,360,11.2,13.3,100,0.00,,,0.96,Rainwise IP-100,2013-03-19 19:49:00,
2013-03-19 15:54:00,40.6,41.0,29.53,NNW,337,9.1,13.1,100,0.00,,,0.96,Rainwise IP-100,2013-03-19 19:54:00,
2013-03-19 15:59:00,40.6,41.0,29.53,NNW,337,10.0,12.1,100,0.00,,,0.96,Rainwise IP-100,2013-03-19 19:59:00,
2013-03-19 16:04:00,40.5,41.0,29.53,NW,315,6.5,16.8,100,0.00,,,0.96,Rainwise IP-100,2013-03-19 20:04:00,
2013-03-19 16:09:00,40.3,40.0,29.52,North,360,6.8,14.2,100,0.00,,,0.96,Rainwise IP-100,2013-03-19 20:09:00,
2013-03-19 16:14:00,40.2,40.0,29.51,NNE,22,2.8,17.7,100,0.00,,,0.96,Rainwise IP-100,2013-03-19 20:14:00,
2013-03-19 16:19:00,40.4,40.0,29.52,NNE,22,8.2,13.8,100,0.00,,,0.96,Rainwise IP-100,2013-03-19 20:19:00,
2013-03-19 16:24:00,40.3,40.0,29.53,North,360,10.0,14.7,100,0.00,,,0.96,Rainwise IP-100,2013-03-19 20:24:00,
2013-03-19 16:29:00,40.1,40.0,29.53,NNW,337,7.9,15.9,100,0.00,,,0.96,Rainwise IP-100,2013-03-19 20:29:00,
2013-03-19 16:34:00,40.0,40.0,29.52,NNW,337,7.7,15.2,100,0.00,,,0.96,Rainwise IP-100,2013-03-19 20:34:00,
2013-03-19 16:39:00,40.0,40.0,29.52,North,360,8.4,12.4,100,0.00,,,0.96,Rainwise IP-100,2013-03-19 20:39:00,
2013-03-19 16:44:00,40.0,40.0,29.52,North,360,7.7,11.2,100,0.00,,,0.96,Rainwise IP-100,2013-03-19 20:44:00,
2013-03-19 16:49:00,40.1,40.0,29.52,NNW,337,6.3,8.9,100,0.00,,,0.96,Rainwise IP-100,2013-03-19 20:49:00,
2013-03-19 16:54:00,40.1,40.0,29.51,NW,315,8.9,11.2,100,0.00,,,0.96,Rainwise IP-100,2013-03-19 20:54:00,
2013-03-19 16:59:00,40.1,40.0,29.51,NNW,337,5.8,11.0,100,0.00,,,0.96,Rainwise IP-100,2013-03-19 20:59:00,
2013-03-19 17:04:00,40.0,40.0,29.50,North,360,7.9,12.6,100,0.00,,,0.96,Rainwise IP-100,2013-03-19 21:04:00,
2013-03-19 17:09:00,40.1,40.0,29.50,ENE,67,5.4,13.5,100,0.00,,,0.96,Rainwise IP-100,2013-03-19 21:09:00,
2013-03-19 17:14:00,40.4,40.0,29.50,NNW,337,4.4,12.4,100,0.00,,,0.96,Rainwise IP-100,2013-03-19 21:14:00,
2013-03-19 17:19:00,40.5,41.0,29.50,North,360,4.9,14.0,100,0.00,,,0.96,Rainwise IP-100,2013-03-19 21:19:00,
2013-03-19 17:24:00,40.4,40.0,29.50,North,360,8.4,14.7,100,0.00,,,0.96,Rainwise IP-100,2013-03-19 21:24:00,
2013-03-19 17:29:00,40.4,40.0,29.51,NNW,337,8.4,12.4,100,0.00,,,0.96,Rainwise IP-100,2013-03-19 21:29:00,
2013-03-19 17:34:00,40.3,40.0,29.52,NNW,337,5.4,14.7,100,0.00,,,0.96,Rainwise IP-100,2013-03-19 21:34:00,
2013-03-19 17:39:00,40.2,40.0,29.52,NNW,337,5.1,10.0,100,0.00,,,0.96,Rainwise IP-100,2013-03-19 21:39:00,
2013-03-19 17:44:00,40.2,40.0,29.53,West,270,3.0,10.7,99,0.00,,,0.96,Rainwise IP-100,2013-03-19 21:44:00,
2013-03-19 17:49:00,40.1,40.0,29.53,NW,315,5.6,11.7,99,0.00,,,0.96,Rainwise IP-100,2013-03-19 21:49:00,
2013-03-19 17:54:00,40.0,40.0,29.53,NNW,337,8.6,12.6,99,0.00,,,0.96,Rainwise IP-100,2013-03-19 21:54:00,
2013-03-19 17:59:00,40.0,40.0,29.54,NNW,337,5.4,9.3,99,0.00,,,0.96,Rainwise IP-100,2013-03-19 21:59:00,
2013-03-19 18:04:00,40.0,40.0,29.54,NW,315,8.4,10.0,99,0.00,,,0.96,Rainwise IP-100,2013-03-19 22:04:00,
2013-03-19 18:09:00,39.9,40.0,29.55,NNW,337,2.8,11.2,99,0.00,,,0.96,Rainwise IP-100,2013-03-19 22:09:00,
2013-03-19 18:14:00,39.8,40.0,29.55,WSW,247,5.8,9.1,99,0.00,,,0.96,Rainwise IP-100,2013-03-19 22:14:00,
2013-03-19 18:19:00,39.6,40.0,29.55,WNW,292,1.4,11.2,99,0.00,,,0.96,Rainwise IP-100,2013-03-19 22:19:00,
2013-03-19 18:24:00,39.4,39.0,29.56,NW,315,12.1,12.1,99,0.00,,,0.96,Rainwise IP-100,2013-03-19 22:24:00,
2013-03-19 18:29:00,39.3,39.0,29.57,WNW,292,1.6,12.1,99,0.00,,,0.96,Rainwise IP-100,2013-03-19 22:29:00,
2013-03-19 18:34:00,39.1,39.0,29.56,NNW,337,6.3,12.8,99,0.00,,,0.96,Rainwise IP-100,2013-03-19 22:34:00,
2013-03-19 18:39:00,38.9,39.0,29.56,NW,315,7.5,14.2,99,0.00,,,0.96,Rainwise IP-100,2013-03-19 22:39:00,
2013-03-19 18:44:00,38.6,39.0,29.57,WNW,292,8.4,13.3,99,0.00,,,0.96,Rainwise IP-100,2013-03-19 22:44:00,
2013-03-19 18:49:00,38.4,38.0,29.57,WNW,292,1.9,13.1,99,0.00,,,0.96,Rainwise IP-100,2013-03-19 22:49:00,
2013-03-19 18:54:00,38.2,38.0,29.57,NNW,337,7.7,12.6,99,0.00,,,0.96,Rainwise IP-100,2013-03-19 22:54:00,
2013-03-19 18:59:00,38.0,38.0,29.57,West,270,3.3,13.5,99,0.00,,,0.96,Rainwise IP-100,2013-03-19 22:59:00,
2013-03-19 19:04:00,37.9,38.0,29.58,WNW,292,8.4,11.2,99,0.00,,,0.96,Rainwise IP-100,2013-03-19 23:04:00,
2013-03-19 19:09:00,37.8,38.0,29.58,West,270,5.1,11.7,99,0.00,,,0.96,Rainwise IP-100,2013-03-19 23:09:00,
2013-03-19 19:14:00,37.5,38.0,29.58,West,270,4.4,11.7,99,0.00,,,0.96,Rainwise IP-100,2013-03-19 23:14:00,
2013-03-19 19:19:00,37.3,37.0,29.58,NW,315,6.8,9.3,99,0.00,,,0.96,Rainwise IP-100,2013-03-19 23:19:00,
2013-03-19 19:24:00,37.1,37.0,29.58,North,360,5.1,12.8,99,0.00,,,0.96,Rainwise IP-100,2013-03-19 23:24:00,
2013-03-19 19:29:00,36.9,37.0,29.58,NNW,337,6.8,10.0,99,0.00,,,0.96,Rainwise IP-100,2013-03-19 23:29:00,
2013-03-19 19:34:00,36.7,37.0,29.58,WSW,247,6.3,12.4,99,0.00,,,0.96,Rainwise IP-100,2013-03-19 23:34:00,
2013-03-19 19:39:00,36.6,37.0,29.58,WNW,292,6.5,7.9,100,0.00,,,0.96,Rainwise IP-100,2013-03-19 23:39:00,
2013-03-19 19:44:00,36.5,37.0,29.58,North,360,6.3,11.2,100,0.00,,,0.96,Rainwise IP-100,2013-03-19 23:44:00,
2013-03-19 19:49:00,36.4,36.0,29.59,ENE,67,5.8,11.2,100,0.00,,,0.96,Rainwise IP-100,2013-03-19 23:49:00,
2013-03-19 19:54:00,36.4,36.0,29.58,NNW,337,8.2,13.3,99,0.00,,,0.96,Rainwise IP-100,2013-03-19 23:54:00,
2013-03-19 19:59:00,36.3,36.0,29.59,NW,315,4.4,12.8,99,0.00,,,0.96,Rainwise IP-100,2013-03-19 23:59:00,
2013-03-19 20:04:00,36.2,36.0,29.59,North,360,3.7,11.2,99,0.00,,,0.96,Rainwise IP-100,2013-03-20 00:04:00,
2013-03-19 20:09:00,36.1,36.0,29.59,NNW,337,7.5,13.8,99,0.00,,,0.96,Rainwise IP-100,2013-03-20 00:09:00,
2013-03-19 20:14:00,36.1,36.0,29.60,WSW,247,3.0,9.8,99,0.00,,,0.96,Rainwise IP-100,2013-03-20 00:14:00,
2013-03-19 20:19:00,36.1,36.0,29.60,NW,315,3.5,11.4,99,0.00,,,0.96,Rainwise IP-100,2013-03-20 00:19:00,
2013-03-19 20:24:00,36.0,36.0,29.60,NNE,22,5.8,13.3,99,0.00,,,0.96,Rainwise IP-100,2013-03-20 00:24:00,
2013-03-19 20:29:00,36.1,36.0,29.61,NNW,337,2.3,11.0,99,0.00,,,0.96,Rainwise IP-100,2013-03-20 00:29:00,
2013-03-19 20:34:00,36.1,36.0,29.62,WSW,247,3.7,14.0,99,0.00,,,0.96,Rainwise IP-100,2013-03-20 00:34:00,
2013-03-19 20:39:00,36.2,36.0,29.62,West,270,5.8,12.6,99,0.00,,,0.96,Rainwise IP-100,2013-03-20 00:39:00,
2013-03-19 20:44:00,36.1,36.0,29.63,NNW,337,1.9,14.0,99,0.00,,,0.96,Rainwise IP-100,2013-03-20 00:44:00,
2013-03-19 20:49:00,36.0,36.0,29.62,WNW,292,3.5,13.8,99,0.00,,,0.96,Rainwise IP-100,2013-03-20 00:49:00,
2013-03-19 20:54:00,35.9,36.0,29.62,West,270,6.1,13.5,99,0.00,,,0.96,Rainwise IP-100,2013-03-20 00:54:00,
2013-03-19 20:59:00,35.8,36.0,29.63,WSW,247,4.9,16.8,99,0.00,,,0.96,Rainwise IP-100,2013-03-20 00:59:00,
2013-03-19 21:04:00,35.8,36.0,29.64,West,270,12.1,13.1,99,0.00,,,0.96,Rainwise IP-100,2013-03-20 01:04:00,
2013-03-19 21:09:00,35.7,36.0,29.64,WSW,247,4.0,12.6,99,0.00,,,0.96,Rainwise IP-100,2013-03-20 01:09:00,
2013-03-19 21:14:00,35.6,36.0,29.63,WSW,247,7.9,17.3,98,0.00,,,0.96,Rainwise IP-100,2013-03-20 01:14:00,
2013-03-19 21:19:00,35.5,36.0,29.64,NW,315,5.6,20.3,98,0.00,,,0.96,Rainwise IP-100,2013-03-20 01:19:00,
2013-03-19 21:24:00,35.4,35.0,29.63,NNW,337,9.8,13.1,98,0.00,,,0.96,Rainwise IP-100,2013-03-20 01:24:00,
2013-03-19 21:29:00,35.3,35.0,29.64,WNW,292,12.8,14.0,98,0.00,,,0.96,Rainwise IP-100,2013-03-20 01:29:00,
2013-03-19 21:34:00,35.2,35.0,29.63,WNW,292,6.8,14.0,98,0.00,,,0.96,Rainwise IP-100,2013-03-20 01:34:00,
2013-03-19 21:39:00,35.0,35.0,29.64,West,270,3.3,14.5,98,0.00,,,0.96,Rainwise IP-100,2013-03-20 01:39:00,
2013-03-19 21:44:00,34.9,35.0,29.64,NNW,337,3.3,10.5,98,0.00,,,0.96,Rainwise IP-100,2013-03-20 01:44:00,
2013-03-19 21:49:00,34.9,35.0,29.65,WNW,292,7.0,11.7,98,0.00,,,0.96,Rainwise IP-100,2013-03-20 01:49:00,
2013-03-19 21:54:00,34.8,35.0,29.65,North,360,8.6,15.4,98,0.00,,,0.96,Rainwise IP-100,2013-03-20 01:54:00,
2013-03-19 21:59:00,34.7,35.0,29.65,NW,315,6.1,15.2,98,0.00,,,0.96,Rainwise IP-100,2013-03-20 01:59:00,
2013-03-19 22:04:00,34.7,35.0,29.64,NW,315,6.3,15.4,98,0.00,,,0.96,Rainwise IP-100,2013-03-20 02:04:00,
2013-03-19 22:09:00,34.7,33.0,29.64,NNW,337,7.5,18.4,97,0.00,,,0.96,Rainwise IP-100,2013-03-20 02:09:00,
2013-03-19 22:14:00,34.6,33.0,29.64,ENE,67,6.5,12.1,97,0.00,,,0.96,Rainwise IP-100,2013-03-20 02:14:00,
2013-03-19 22:19:00,34.5,33.0,29.65,North,360,9.8,14.9,97,0.00,,,0.96,Rainwise IP-100,2013-03-20 02:19:00,
2013-03-19 22:24:00,34.4,33.0,29.64,North,360,2.8,13.8,97,0.00,,,0.96,Rainwise IP-100,2013-03-20 02:24:00,
2013-03-19 22:29:00,34.2,33.0,29.64,NNW,337,6.1,13.3,97,0.00,,,0.96,Rainwise IP-100,2013-03-20 02:29:00,
2013-03-19 22:34:00,34.1,33.0,29.64,North,360,7.0,10.7,97,0.00,,,0.96,Rainwise IP-100,2013-03-20 02:34:00,
2013-03-19 22:39:00,34.1,33.0,29.64,NNW,337,5.8,12.4,96,0.00,,,0.96,Rainwise IP-100,2013-03-20 02:39:00,
2013-03-19 22:44:00,33.9,33.0,29.64,North,360,4.7,12.8,96,0.00,,,0.96,Rainwise IP-100,2013-03-20 02:44:00,
2013-03-19 22:49:00,33.8,33.0,29.64,NW,315,3.0,11.4,96,0.00,,,0.96,Rainwise IP-100,2013-03-20 02:49:00,
2013-03-19 22:54:00,33.7,33.0,29.65,NW,315,3.0,10.7,96,0.00,,,0.96,Rainwise IP-100,2013-03-20 02:54:00,
2013-03-19 22:59:00,33.6,33.0,29.64,NW,315,6.5,7.9,96,0.00,,,0.96,Rainwise IP-100,2013-03-20 02:59:00,
2013-03-19 23:04:00,33.5,33.0,29.64,North,360,13.3,13.3,96,0.00,,,0.96,Rainwise IP-100,2013-03-20 03:04:00,
2013-03-19 23:09:00,33.5,33.0,29.65,West,270,5.1,15.6,96,0.00,,,0.96,Rainwise IP-100,2013-03-20 03:09:00,
2013-03-19 23:14:00,33.4,32.0,29.65,WSW,247,4.7,6.8,96,0.00,,,0.96,Rainwise IP-100,2013-03-20 03:14:00,
2013-03-19 23:19:00,33.3,32.0,29.66,NNW,337,5.6,9.8,96,0.00,,,0.96,Rainwise IP-100,2013-03-20 03:19:00,
2013-03-19 23:24:00,33.3,32.0,29.65,NW,315,3.7,10.5,96,0.00,,,0.96,Rainwise IP-100,2013-03-20 03:24:00,
2013-03-19 23:29:00,33.3,32.0,29.66,WNW,292,0.0,12.1,96,0.00,,,0.96,Rainwise IP-100,2013-03-20 03:29:00,
2013-03-19 23:34:00,33.3,32.0,29.66,NNW,337,7.0,11.2,96,0.00,,,0.96,Rainwise IP-100,2013-03-20 03:34:00,
2013-03-19 23:39:00,33.2,32.0,29.65,NNW,337,4.4,11.0,96,0.00,,,0.96,Rainwise IP-100,2013-03-20 03:39:00,
2013-03-19 23:44:00,33.1,32.0,29.66,NW,315,7.7,9.8,96,0.00,,,0.96,Rainwise IP-100,2013-03-20 03:44:00,
2013-03-19 23:49:00,33.0,32.0,29.67,NNW,337,4.7,13.1,96,0.00,,,0.96,Rainwise IP-100,2013-03-20 03:49:00,
2013-03-19 23:54:00,33.2,32.0,29.67,NW,315,5.6,8.6,96,0.00,,,0.96,Rainwise IP-100,2013-03-20 03:54:00,
2013-03-19 23:59:00,33.3,32.0,29.67,NW,315,5.4,8.2,96,0.00,,,0.96,Rainwise IP-100,2013-03-20 03:59:00,